Date String (YYYY-MM-DD hh:mm:ss) UTC,Instrument flags,Ambient pressure (hPa),Sample flow (lpm),Bypass flow (lpm),Sample temperature (°C),Ambient temperature (°C),ASC tube jacket temperature (°C),LED temperature (°C),Box temperature (°C),Sample RH (%),Span deviation,Mass concentration (μg/m³),Mass concentration (μg/m³),Mass concentration (μg/m³)
DateTimeUTC,F1_M11,P_M11,Q1_M11,Q2_M11,T1_M11,T2_M11,T3_M11,T4_M11,T5_M11,U1_M11,ZSPAN_M11,X2_M11,X0_M11,X1_M11
2021-10-09 14:00:00,,0820.3,4.99,0.00,29.1,28.3,00.0,38.4,30.8,14.8,0000.0,0001.47,0004.27,0001.07
2021-10-09 14:01:00,,0820.2,5.01,0.00,29.1,28.3,00.0,38.4,30.8,14.8,0000.0,0001.50,0004.37,0001.07
2021-10-09 14:02:00,,0820.3,5.00,0.00,29.1,28.3,00.0,38.4,30.8,14.7,0000.0,0001.51,0004.90,0001.07
2021-10-09 14:03:00,,0820.2,5.00,0.00,29.1,28.3,00.0,38.4,30.9,14.4,0000.0,0001.48,0004.90,0001.07
2021-10-09 14:04:00,,0820.2,4.99,0.00,29.1,28.3,00.0,38.4,30.8,14.7,0000.0,0001.50,0004.91,0001.07
2021-10-09 14:05:00,,0820.3,5.00,0.00,29.1,28.3,00.0,38.4,30.8,14.4,0000.0,0001.49,0004.88,0001.07
2021-10-09 14:06:00,,0820.3,5.00,0.00,29.1,28.3,00.0,38.4,30.8,14.1,0000.0,0001.51,0004.93,0001.08
2021-10-09 14:07:00,,0820.2,5.00,0.00,29.1,28.2,00.0,38.3,30.8,13.8,0000.0,0001.53,0004.91,0001.08
2021-10-09 14:08:00,,0820.2,5.00,0.00,29.0,28.2,00.0,38.3,30.7,13.2,0000.0,0001.59,0004.54,0001.10
2021-10-09 14:09:00,,0820.2,5.01,0.00,29.0,28.2,00.0,38.3,30.7,13.1,0000.0,0001.65,0004.75,0001.11
2021-10-09 14:10:00,,0820.2,5.01,0.00,29.0,28.1,00.0,38.3,30.7,13.5,0000.0,0001.67,0004.08,0001.10
2021-10-09 14:11:00,,0820.2,5.00,0.00,29.0,28.1,00.0,38.3,30.7,13.9,0000.0,0001.65,0003.75,0001.11
2021-10-09 14:12:00,,0820.2,5.01,0.00,29.0,28.1,00.0,38.3,30.7,14.3,0000.0,0001.66,0003.91,0001.10
2021-10-09 14:13:00,,0820.3,4.99,0.00,28.9,28.1,00.0,38.2,30.6,14.2,0000.0,0001.70,0003.64,0001.11
2021-10-09 14:14:00,,0820.4,5.01,0.00,28.9,28.1,00.0,38.2,30.6,14.2,0000.0,0001.74,0003.60,0001.10
2021-10-09 14:15:00,,0820.4,4.99,0.00,28.9,28.1,00.0,38.2,30.6,14.5,0000.0,0001.75,0003.99,0001.11
2021-10-09 14:16:00,,0820.3,5.01,0.00,28.9,28.1,00.0,38.2,30.6,13.7,0000.0,0001.73,0004.95,0001.11
2021-10-09 14:17:00,,0820.3,5.00,0.00,28.9,28.1,00.0,38.2,30.6,14.3,0000.0,0001.73,0005.06,0001.11
2021-10-09 14:18:00,,0820.3,5.00,0.00,28.9,28.1,00.0,38.2,30.6,14.0,0000.0,0001.73,0005.24,0001.12
2021-10-09 14:19:00,,0820.3,5.02,0.00,28.9,28.1,00.0,38.1,30.6,13.8,0000.0,0001.73,0005.21,0001.11
2021-10-09 14:20:00,,0820.3,5.01,0.00,28.9,28.1,00.0,38.1,30.6,13.8,0000.0,0001.68,0005.04,0001.10
2021-10-09 14:21:00,,0820.5,5.00,0.00,28.9,28.1,00.0,38.1,30.6,13.8,0000.0,0001.65,0004.73,0001.10
2021-10-09 14:22:00,,0820.6,5.01,0.00,28.9,28.1,00.0,38.1,30.6,13.8,0000.0,0001.64,0005.09,0001.09
2021-10-09 14:23:00,,0820.5,4.99,0.00,28.9,28.1,00.0,38.1,30.6,13.5,0000.0,0001.64,0005.18,0001.10
2021-10-09 14:24:00,,0820.5,5.01,0.00,28.9,28.1,00.0,38.1,30.6,13.0,0000.0,0001.57,0004.80,0001.10
2021-10-09 14:25:00,,0820.6,5.00,0.00,28.9,28.1,00.0,38.1,30.6,13.4,0000.0,0001.53,0004.69,0001.11
2021-10-09 14:26:00,,0820.6,4.99,0.00,28.9,28.1,00.0,38.1,30.6,14.1,0000.0,0001.53,0004.45,0001.12
2021-10-09 14:27:00,,0820.4,4.99,0.00,28.8,28.1,00.0,38.1,30.5,13.6,0000.0,0001.54,0003.72,0001.12
2021-10-09 14:28:00,,0820.4,5.01,0.00,28.8,28.0,00.0,38.1,30.5,12.8,0000.0,0001.57,0006.43,0001.12
2021-10-09 14:29:00,,0820.4,5.00,0.00,28.8,28.0,00.0,38.1,30.5,13.8,0000.0,0001.62,0006.55,0001.11
2021-10-09 14:30:00,,0820.5,5.00,0.00,28.8,28.0,00.0,38.0,30.5,14.6,0000.0,0001.57,0006.46,0001.11
2021-10-09 14:31:00,,0820.6,5.00,0.00,28.8,28.0,00.0,38.0,30.5,14.3,0000.0,0001.56,0006.46,0001.11
2021-10-09 14:32:00,,0820.6,5.00,0.00,28.8,28.0,00.0,38.0,30.5,14.6,0000.0,0001.56,0006.49,0001.11
2021-10-09 14:33:00,,0820.6,5.01,0.00,28.8,28.0,00.0,38.0,30.5,13.3,0000.0,0001.57,0006.16,0001.12
2021-10-09 14:34:00,,0820.5,5.00,0.00,28.8,28.0,00.0,38.0,30.6,12.0,0000.0,0001.61,0006.07,0001.13
2021-10-09 14:35:00,,0820.5,4.99,0.00,28.8,28.1,00.0,38.0,30.6,11.3,0000.0,0001.66,0006.49,0001.14
2021-10-09 14:36:00,,0820.4,5.01,0.00,28.8,28.0,00.0,38.0,30.5,11.3,0000.0,0001.73,0007.11,0001.15
2021-10-09 14:37:00,,0820.4,5.00,0.00,28.8,28.0,00.0,38.0,30.5,11.2,0000.0,0001.77,0007.79,0001.16
2021-10-09 14:38:00,,0820.3,5.00,0.00,28.8,28.1,00.0,38.0,30.5,11.4,0000.0,0001.83,0008.57,0001.17
2021-10-09 14:39:00,,0820.1,5.00,0.00,28.8,28.1,00.0,38.0,30.6,10.8,0000.0,0001.91,0007.95,0001.19
2021-10-09 14:40:00,,0820.0,5.01,0.00,28.8,28.1,00.0,38.0,30.6,10.8,0000.0,0002.02,0008.84,0001.21
2021-10-09 14:41:00,,0820.0,4.99,0.00,28.8,28.1,00.0,38.0,30.6,10.9,0000.0,0002.19,0010.08,0001.22
2021-10-09 14:42:00,,0820.0,5.00,0.00,28.8,28.1,00.0,38.0,30.6,11.0,0000.0,0002.31,0010.63,0001.24
2021-10-09 14:43:00,,0820.0,5.00,0.00,28.8,28.1,00.0,38.0,30.5,11.1,0000.0,0002.42,0011.13,0001.26
2021-10-09 14:44:00,,0819.9,5.00,0.00,28.8,28.1,00.0,38.0,30.5,11.3,0000.0,0002.48,0011.63,0001.27
2021-10-09 14:45:00,,0819.8,5.00,0.00,28.8,28.1,00.0,38.0,30.6,11.2,0000.0,0002.54,0011.80,0001.28
2021-10-09 14:46:00,,0819.9,4.98,0.00,28.9,28.1,00.0,38.0,30.6,11.2,0000.0,0002.62,0012.09,0001.29
2021-10-09 14:47:00,,0819.8,5.00,0.00,28.9,28.1,00.0,38.0,30.6,11.4,0000.0,0002.61,0011.80,0001.29
2021-10-09 14:48:00,,0819.9,4.99,0.00,28.9,28.1,00.0,38.0,30.6,11.6,0000.0,0002.73,0012.05,0001.30
2021-10-09 14:49:00,,0819.9,5.00,0.00,28.9,28.1,00.0,38.0,30.7,11.8,0000.0,0002.83,0011.96,0001.31
2021-10-09 14:50:00,,0819.9,5.00,0.00,28.9,28.1,00.0,38.0,30.7,11.9,0000.0,0002.93,0012.10,0001.31
2021-10-09 14:51:00,,0819.9,4.99,0.00,28.9,28.1,00.0,38.0,30.6,12.0,0000.0,0002.92,0011.52,0001.31
2021-10-09 14:52:00,,0819.8,5.00,0.00,28.9,28.1,00.0,38.0,30.6,12.2,0000.0,0002.83,0010.29,0001.31
2021-10-09 14:53:00,,0819.9,5.00,0.00,28.9,28.1,00.0,38.0,30.6,12.3,0000.0,0002.84,0011.09,0001.31
2021-10-09 14:54:00,,0819.9,4.99,0.00,28.9,28.1,00.0,38.0,30.6,12.5,0000.0,0002.94,0012.07,0001.32
2021-10-09 14:55:00,,0819.9,5.00,0.00,28.9,28.1,00.0,38.0,30.6,12.9,0000.0,0002.97,0012.07,0001.32
2021-10-09 14:56:00,,0819.7,5.01,0.00,28.9,28.1,00.0,38.0,30.7,12.8,0000.0,0003.03,0012.31,0001.33
2021-10-09 14:57:00,,0819.8,5.00,0.00,28.9,28.1,00.0,38.1,30.7,12.6,0000.0,0003.12,0013.59,0001.34
2021-10-09 14:58:00,,0819.7,4.99,0.00,28.9,28.1,00.0,38.1,30.7,13.0,0000.0,0003.19,0013.87,0001.36
2021-10-09 14:59:00,,0819.7,5.00,0.00,28.9,28.1,00.0,38.1,30.7,13.2,0000.0,0003.17,0013.95,0001.36
